Weather in Shushary

Russia / Saint-Petersburg and Leningrad Oblast     59°48′25″N   30°22′46″E
temp.,
°C
wind,
m/s
gust,
m/s
humid.,
%
clouds,
%
prec.,
mm/h
press.,
hPa
HPBL,
m
1 march, mon
mon100:00−1w339549 0.0 102183
03:00−2sw389427 0.0 1021163
06:00+1wsw4109642 0.0 1019316
09:00+1w4119570 0.0 1018418
12:00+3w51391100 0.0 1017578
15:00+3w61389100 0.0 1016568
18:00+2wsw41484100 0.0 1014510
21:00+2wnw6148996 0.0 1013551
2 march, tue
tue200:00+1wnw51391100 0.0 1012453
03:000wnw5139284 0.0 1013466
06:00−1wnw5139430 0.0 1011471
09:00−1wnw5129240 0.0 1012547
12:00+1wnw6118556 0.0 1012641
15:00+2nw6118050 0.0 1014965
18:000nw4118234 0.0 1015574
21:00−1nw5138717 0.0 1018530
3 march, wed
wed300:00−1wnw511880 0.0 1018403
03:00−2wnw512880 0.0 1018444
06:00−2wnw512900 0.0 1017436
09:00−2wnw5119110 0.0 1017474
12:000wnw5108454 0.0 1016571
15:00+1w5118168 0.0 1014711
18:00+1wsw51380100 0.0 1010705
21:00+2w7159497 0.4 1006975
4 march, thu
thu400:00+2w71590100 0.0 1001913
03:00+1wnw71384100 0.1 1000973
06:00−2wnw6137627 0.0 999837
09:00−3nw6117736 0.0 1000890
12:00−3nw6107796 0.1 10011018
15:00−2nnw697398 0.5 10031183
18:00−3nnw386679 0.1 1004545
21:00−4nw387962 0.1 1006390
5 march, fri
fri500:00−5wnw368533 0.0 1006276
03:00−5wnw479066 0.1 1006457
06:00−7nw4787100 0.1 1007515
09:00−8nw478597 0.1 1008514
12:00−6nw3579100 0.1 1009643
15:00−5nnw3578100 0.2 1011649
18:00−6nne3489100 0.4 1012423
21:00−8nne368398 0.6 1014522